Content
SEND FEEDBACK

Daily
Averages
Monthly
Summary
Canada

CHARLOTTETOWN, PRINCE EDWARD ISLAND


Home > North America > Canada > Prince Edward Island
Elevation: 181 feet     Latitude: 46 17N     Longitude: 063 08W

WEATHER
 
SELECT A DAY
Number of Records: 199,913;   Date Range: 1/1/95 - 12/16/14
 
SHARE

PRINT THIS DATA

[ ← Previous Day ]
WEATHER ALMANAC - AUGUST 21, 2013
[ Next Day → ]
[ °C ]   °F
Weather ElementAverageHighLow
Temperature71.1 °F82.4 °F (4:00 pm)59 °F (1:00 am)
Dewpoint62.3 °F66.2 °F (1:00 pm)55.4 °F (1:00 am)
Humidity74.8 %94 % (3:00 am)47 % (3:00 pm)
Barometer30.04 in30.09 in (1:00 am)29.96 in (8:00 pm)
Wind Speed10.9 mph18.4 mph (3:00 pm)
Wind Gust24.2 mph (4:00 pm)
Weather ElementAverage
Visibility15 mi
Wind DirectionSSW (194.1 °)

Weather ElementTotal
Precipitation---
Cooling Degree Days5.7 (Base 65)
Growing Degree Days20.7 (Base 50)
Averaged from 27 records on August 21, 2013
WEATHER CONDITIONS BREAKOUT
WIND DIRECTION BREAKOUT
WEATHER BY HOUR - AUGUST 21, 2013
[ °C ]   °F
Local TimeTemperatureDewpointHumidityBarometerVisibilityWind DirectionWind SpeedGust SpeedPrecipitationEventsConditions
1:00 AM59.0 °F55.4 °F88 %30.09 in15.0 miESE (120°)6.9 mphMostly Cloudy
2:00 AM59.0 °F55.4 °F88 %30.09 in15.0 miESE (120°)4.6 mphMostly Cloudy
3:00 AM59.0 °F57.2 °F94 %30.09 in15.0 miSSE (150°)3.5 mphMostly Cloudy
4:00 AM62.6 °F60.8 °F94 %30.09 in15.0 miSouth (180°)6.9 mphMostly Cloudy
5:00 AM64.4 °F62.6 °F94 %30.08 in15.0 miSouth (170°)9.2 mphMostly Cloudy
6:00 AM64.4 °F62.6 °F94 %30.08 in15.0 miSouth (180°)10.4 mphMostly Cloudy
6:25 AM64.4 °F62.6 °F94 %30.08 in15.0 miSouth (170°)8.1 mphMostly Cloudy
7:00 AM64.4 °F62.6 °F94 %30.08 in15.0 miSouth (180°)10.4 mphMostly Cloudy
8:00 AM66.2 °F64.4 °F94 %30.09 in15.0 miSouth (180°)10.4 mphMostly Cloudy
9:00 AM68.0 °F63.0 °F80 %30.09 in15.0 miSouth (190°)10.4 mphPartly Cloudy
9:00 AM68.0 °F62.6 °F83 %30.09 in15.0 miSouth (190°)11.5 mphScattered Clouds
10:00 AM69.8 °F62.6 °F78 %30.07 in15.0 miSouth (190°)15.0 mphPartly Cloudy
11:00 AM71.6 °F62.6 °F73 %30.07 in15.0 miSSW (200°)15.0 mphScattered Clouds
12:00 PM75.2 °F64.4 °F69 %30.06 in15.0 miSSW (210°)11.5 mph18.4 mphPartly Cloudy
1:00 PM77.0 °F66.2 °F69 %30.05 in15.0 miSSW (200°)11.5 mph17.3 mphPartly Cloudy
2:00 PM80.6 °F66.2 °F61 %30.03 in15.0 miSSW (210°)16.1 mphScattered Clouds
3:00 PM81.0 °F64.0 °F47 %30.01 in15.0 miSSW (210°)16.1 mphClear
3:00 PM80.6 °F64.4 °F58 %30.01 in15.0 miSSW (210°)18.4 mphScattered Clouds
4:00 PM82.4 °F62.6 °F51 %30.00 in15.0 miSW (220°)16.1 mph24.2 mphScattered Clouds
5:00 PM80.6 °F62.6 °F54 %29.99 in15.0 miSW (220°)15.0 mph20.7 mphScattered Clouds
6:00 PM80.6 °F62.6 °F54 %29.98 in15.0 miSW (230°)13.8 mph24.2 mphScattered Clouds
7:00 PM78.8 °F62.6 °F57 %29.97 in15.0 miSW (220°)10.4 mph17.3 mphScattered Clouds
8:00 PM75.2 °F62.6 °F65 %29.96 in15.0 miSW (220°)8.1 mphScattered Clouds
9:00 PM73.0 °F62.0 °F61 %29.96 in15.0 miSW (220°)8.1 mphClear
9:00 PM73.4 °F62.6 °F69 %29.96 in15.0 miSW (220°)9.2 mphScattered Clouds
10:00 PM69.8 °F62.6 °F78 %29.97 in15.0 miSW (220°)8.1 mphScattered Clouds
11:00 PM69.8 °F62.6 °F78 %29.96 in15.0 miSSW (210°)10.4 mphPartly Cloudy
Hourly data recorded from CYYG, located miles away from Charlottetown, Prince Edward Island







STORIES FROM OUR PARTNERS